EIN69D EIDW-EDDL

Flight info

Callsign EIN69D
Flight time 1h 22m
Altitude 39000
Route ENDEQ3J ENDEQ Q36 ALAVA Z195 MALUD UL975 WAL M16 DOLAS L603 LAMSO DCT PAM P62 PISAP PISAP1A
Aircraft A320/M-SDE3FGHIRWY/LB1

Departure

Time 2026-05-06 16:23
Airport Dublin Airport (EIDW)

Arrival

Time 2026-05-06 17:46
Airport Düsseldorf Airport (EDDL)
Time Latitude Longitude Altitude Speed Heading
2026-05-06 15:58 53.42380 -6.24446 250 ft 0 kts 135°
2026-05-06 16:13 53.42383 -6.24451 250 ft 2 kts 136°
2026-05-06 16:14 53.42394 -6.24469 250 ft 2 kts 135°
2026-05-06 16:14 53.42404 -6.24486 250 ft 2 kts 136°
2026-05-06 16:14 53.42415 -6.24503 250 ft 2 kts 136°
2026-05-06 16:14 53.42426 -6.24521 250 ft 2 kts 135°
2026-05-06 16:15 53.42436 -6.24539 250 ft 1 kts 146°
2026-05-06 16:15 53.42449 -6.24541 250 ft 2 kts 209°
2026-05-06 16:15 53.42455 -6.24531 250 ft 1 kts 244°
2026-05-06 16:15 53.42458 -6.24521 250 ft 0 kts 243°
2026-05-06 16:17 53.42458 -6.24523 250 ft 1 kts 243°
2026-05-06 16:17 53.42448 -6.24552 250 ft 4 kts 243°
2026-05-06 16:17 53.42428 -6.24617 250 ft 7 kts 242°
2026-05-06 16:17 53.42394 -6.24711 250 ft 11 kts 231°
2026-05-06 16:18 53.42335 -6.24817 250 ft 13 kts 226°
2026-05-06 16:18 53.42260 -6.24947 250 ft 16 kts 227°
2026-05-06 16:18 53.42207 -6.25131 250 ft 18 kts 266°
2026-05-06 16:18 53.42215 -6.25344 250 ft 18 kts 276°
2026-05-06 16:19 53.42226 -6.25549 250 ft 17 kts 275°
2026-05-06 16:19 53.42237 -6.25743 250 ft 16 kts 275°
2026-05-06 16:19 53.42247 -6.25939 250 ft 17 kts 275°
2026-05-06 16:19 53.42258 -6.26139 250 ft 17 kts 276°
2026-05-06 16:20 53.42270 -6.26349 250 ft 18 kts 275°
2026-05-06 16:20 53.42281 -6.26564 250 ft 18 kts 276°
2026-05-06 16:20 53.42294 -6.26784 250 ft 19 kts 275°
2026-05-06 16:20 53.42306 -6.27009 250 ft 19 kts 275°
2026-05-06 16:21 53.42317 -6.27238 250 ft 19 kts 276°
2026-05-06 16:21 53.42331 -6.27473 250 ft 20 kts 277°
2026-05-06 16:21 53.42345 -6.27709 250 ft 20 kts 275°
2026-05-06 16:21 53.42357 -6.27947 250 ft 20 kts 275°
2026-05-06 16:22 53.42369 -6.28189 250 ft 20 kts 272°
2026-05-06 16:22 53.42290 -6.28320 250 ft 17 kts 137°
2026-05-06 16:22 53.42215 -6.28158 250 ft 18 kts 115°
2026-05-06 16:22 53.42184 -6.27909 250 ft 27 kts 96°
2026-05-06 16:23 53.42145 -6.27221 250 ft 95 kts 95°
2026-05-06 16:23 53.42060 -6.25743 284 ft 153 kts 97°
2026-05-06 16:23 53.41939 -6.23765 627 ft 176 kts 97°
2026-05-06 16:23 53.41803 -6.21613 1218 ft 186 kts 97°
2026-05-06 16:24 53.41662 -6.19315 1768 ft 202 kts 97°
2026-05-06 16:24 53.41530 -6.16901 2463 ft 209 kts 96°
2026-05-06 16:24 53.41412 -6.14389 3018 ft 226 kts 96°
2026-05-06 16:24 53.41272 -6.11635 3580 ft 243 kts 97°
2026-05-06 16:25 53.41119 -6.08800 4345 ft 250 kts 97°
2026-05-06 16:25 53.40958 -6.05859 5263 ft 254 kts 97°
2026-05-06 16:25 53.40861 -6.02894 6125 ft 258 kts 91°
2026-05-06 16:25 53.40946 -5.99911 6952 ft 263 kts 85°
2026-05-06 16:26 53.41183 -5.96816 7788 ft 267 kts 83°
2026-05-06 16:26 53.41446 -5.93696 8454 ft 271 kts 83°
2026-05-06 16:26 53.41709 -5.90584 8870 ft 273 kts 83°
2026-05-06 16:26 53.41974 -5.87419 8992 ft 274 kts 83°
2026-05-06 16:27 53.42236 -5.84258 9000 ft 273 kts 83°
2026-05-06 16:27 53.42494 -5.81119 9004 ft 273 kts 83°
2026-05-06 16:27 53.42735 -5.77885 9150 ft 280 kts 84°
2026-05-06 16:27 53.42954 -5.74610 9934 ft 283 kts 84°
2026-05-06 16:28 53.43167 -5.71373 10789 ft 286 kts 84°
2026-05-06 16:28 53.43387 -5.68022 11479 ft 294 kts 84°
2026-05-06 16:28 53.43612 -5.64602 12238 ft 299 kts 84°
2026-05-06 16:28 53.43842 -5.61104 12988 ft 304 kts 83°
2026-05-06 16:29 53.44074 -5.57572 13704 ft 309 kts 83°
2026-05-06 16:29 53.44308 -5.54013 14394 ft 314 kts 83°
2026-05-06 16:29 53.44492 -5.50352 15078 ft 319 kts 86°
2026-05-06 16:29 53.44508 -5.46645 15750 ft 323 kts 91°
2026-05-06 16:30 53.44427 -5.42815 16314 ft 332 kts 91°
2026-05-06 16:30 53.44394 -5.41526 16516 ft 334 kts 91°
2026-05-06 16:30 53.44221 -5.34976 17603 ft 341 kts 92°
2026-05-06 16:30 53.44118 -5.31040 18240 ft 344 kts 92°
2026-05-06 16:31 53.44013 -5.27000 18872 ft 347 kts 92°
2026-05-06 16:31 53.43907 -5.22939 19474 ft 351 kts 92°
2026-05-06 16:31 53.43799 -5.18825 20095 ft 354 kts 92°
2026-05-06 16:31 53.43687 -5.14708 20683 ft 357 kts 92°
2026-05-06 16:32 53.43562 -5.10539 21257 ft 361 kts 92°
2026-05-06 16:32 53.43430 -5.06364 21822 ft 364 kts 92°
2026-05-06 16:32 53.43293 -5.02088 22359 ft 367 kts 92°
2026-05-06 16:32 53.43156 -4.97848 22876 ft 370 kts 92°
2026-05-06 16:33 53.43013 -4.93465 23396 ft 374 kts 92°
2026-05-06 16:33 53.42871 -4.89162 23893 ft 377 kts 92°
2026-05-06 16:33 53.42726 -4.84753 24392 ft 380 kts 92°
2026-05-06 16:34 53.42436 -4.75836 25279 ft 389 kts 92°
2026-05-06 16:34 53.42283 -4.71245 25743 ft 393 kts 92°
2026-05-06 16:34 53.42126 -4.66629 26228 ft 396 kts 92°
2026-05-06 16:34 53.41964 -4.61921 26719 ft 399 kts 92°
2026-05-06 16:35 53.41803 -4.57288 27190 ft 401 kts 92°
2026-05-06 16:35 53.41636 -4.52586 27656 ft 404 kts 92°
2026-05-06 16:35 53.41468 -4.47875 28107 ft 407 kts 92°
2026-05-06 16:35 53.41297 -4.43166 28545 ft 409 kts 92°
2026-05-06 16:36 53.41122 -4.38392 28979 ft 412 kts 92°
2026-05-06 16:36 53.40945 -4.33620 29397 ft 414 kts 93°
2026-05-06 16:36 53.40765 -4.28813 29792 ft 417 kts 93°
2026-05-06 16:36 53.40579 -4.23915 30210 ft 419 kts 93°
2026-05-06 16:37 53.40391 -4.19050 30628 ft 422 kts 93°
2026-05-06 16:37 53.40200 -4.14134 31032 ft 424 kts 93°
2026-05-06 16:37 53.40008 -4.09264 31404 ft 426 kts 93°
2026-05-06 16:37 53.39813 -4.04319 31774 ft 428 kts 93°
2026-05-06 16:38 53.39668 -3.99315 32140 ft 430 kts 90°
2026-05-06 16:38 53.39700 -3.94273 32482 ft 431 kts 86°
2026-05-06 16:38 53.39908 -3.89253 32760 ft 433 kts 84°
2026-05-06 16:38 53.40170 -3.84205 33042 ft 436 kts 84°
2026-05-06 16:39 53.40434 -3.79184 33324 ft 437 kts 84°
2026-05-06 16:39 53.40693 -3.74145 33587 ft 439 kts 84°
2026-05-06 16:39 53.40948 -3.69048 33842 ft 441 kts 84°
2026-05-06 16:39 53.41162 -3.63932 34099 ft 443 kts 86°
2026-05-06 16:40 53.41206 -3.58756 34358 ft 445 kts 90°
2026-05-06 16:40 53.41061 -3.53565 34609 ft 447 kts 93°
2026-05-06 16:40 53.40833 -3.48350 34853 ft 449 kts 93°
2026-05-06 16:40 53.40592 -3.43148 35086 ft 450 kts 93°
2026-05-06 16:41 53.40349 -3.37930 35314 ft 452 kts 93°
2026-05-06 16:41 53.40107 -3.32720 35530 ft 453 kts 94°
2026-05-06 16:41 53.39864 -3.27473 35759 ft 453 kts 94°
2026-05-06 16:41 53.39620 -3.22250 35990 ft 452 kts 94°
2026-05-06 16:42 53.39372 -3.16955 36207 ft 452 kts 94°
2026-05-06 16:42 53.39132 -3.11747 36395 ft 452 kts 94°
2026-05-06 16:42 53.38931 -3.06446 36548 ft 452 kts 93°
2026-05-06 16:42 53.38747 -3.01265 36693 ft 452 kts 93°
2026-05-06 16:43 53.38559 -2.96020 36835 ft 451 kts 93°
2026-05-06 16:43 53.38365 -2.90738 36967 ft 452 kts 93°
2026-05-06 16:43 53.38165 -2.85481 37099 ft 452 kts 93°
2026-05-06 16:43 53.37964 -2.80281 37213 ft 453 kts 94°
2026-05-06 16:44 53.37756 -2.75005 37310 ft 454 kts 94°
2026-05-06 16:44 53.37330 -2.64386 37503 ft 456 kts 94°
2026-05-06 16:44 53.37114 -2.59100 37605 ft 457 kts 94°
2026-05-06 16:45 53.36896 -2.53816 37701 ft 457 kts 94°
2026-05-06 16:45 53.36448 -2.43215 37878 ft 458 kts 94°
2026-05-06 16:46 53.35988 -2.32545 38038 ft 460 kts 95°
2026-05-06 16:46 53.35287 -2.21867 38184 ft 462 kts 100°
2026-05-06 16:47 53.34195 -2.11130 38339 ft 463 kts 101°
2026-05-06 16:47 53.33074 -2.00373 38484 ft 464 kts 100°
2026-05-06 16:48 53.31948 -1.89598 38632 ft 465 kts 100°
2026-05-06 16:48 53.30802 -1.78707 38778 ft 466 kts 100°
2026-05-06 16:49 53.29642 -1.67800 38916 ft 467 kts 100°
2026-05-06 16:49 53.28465 -1.56782 38993 ft 468 kts 100°
2026-05-06 16:50 53.27289 -1.45833 38992 ft 468 kts 100°
2026-05-06 16:50 53.26116 -1.35027 38997 ft 469 kts 100°
2026-05-06 16:51 53.24910 -1.24053 38996 ft 469 kts 101°
2026-05-06 16:51 53.23699 -1.13146 39000 ft 468 kts 101°
2026-05-06 16:52 53.22489 -1.02364 39005 ft 469 kts 101°
2026-05-06 16:52 53.21274 -0.91641 39012 ft 469 kts 101°
2026-05-06 16:53 53.20055 -0.80918 39020 ft 469 kts 101°
2026-05-06 16:53 53.18826 -0.70137 39028 ft 469 kts 101°
2026-05-06 16:54 53.17582 -0.59366 39035 ft 469 kts 101°
2026-05-06 16:54 53.16323 -0.48585 39039 ft 469 kts 101°
2026-05-06 16:55 53.15046 -0.37769 39041 ft 468 kts 101°
2026-05-06 16:55 53.13777 -0.27111 39043 ft 469 kts 102°
2026-05-06 16:56 53.12508 -0.16518 39045 ft 469 kts 102°
2026-05-06 16:56 53.11228 -0.05908 39044 ft 469 kts 102°
2026-05-06 16:57 53.09938 0.04701 39041 ft 469 kts 102°
2026-05-06 16:57 53.08643 0.15278 39023 ft 468 kts 102°
2026-05-06 16:58 53.07344 0.25806 39018 ft 468 kts 102°
2026-05-06 16:58 53.06027 0.36374 39029 ft 468 kts 103°
2026-05-06 16:59 53.04698 0.46956 39026 ft 467 kts 103°
2026-05-06 16:59 53.03365 0.57498 39022 ft 467 kts 102°
2026-05-06 17:00 53.02047 0.67845 39019 ft 467 kts 103°
2026-05-06 17:00 53.00697 0.78361 39015 ft 467 kts 103°
2026-05-06 17:01 52.99336 0.88878 39009 ft 467 kts 103°
2026-05-06 17:01 52.97960 0.99421 39005 ft 467 kts 103°
2026-05-06 17:02 52.96710 1.09959 39002 ft 467 kts 102°
2026-05-06 17:02 52.95518 1.20490 39000 ft 467 kts 102°
2026-05-06 17:03 52.94288 1.31140 38998 ft 467 kts 102°
2026-05-06 17:03 52.93050 1.41714 38996 ft 467 kts 102°
2026-05-06 17:04 52.91802 1.52260 38995 ft 467 kts 102°
2026-05-06 17:04 52.90548 1.62771 38994 ft 467 kts 102°
2026-05-06 17:05 52.89296 1.73175 38993 ft 467 kts 103°
2026-05-06 17:05 52.88023 1.83664 38992 ft 467 kts 103°
2026-05-06 17:06 52.86790 1.93750 38988 ft 466 kts 103°
2026-05-06 17:06 52.85491 2.04286 38983 ft 465 kts 103°
2026-05-06 17:07 52.84195 2.14715 38982 ft 465 kts 103°
2026-05-06 17:07 52.82884 2.25156 38980 ft 465 kts 103°
2026-05-06 17:08 52.81553 2.35683 38977 ft 465 kts 103°
2026-05-06 17:08 52.80221 2.46134 38974 ft 465 kts 103°
2026-05-06 17:09 52.78894 2.56498 38971 ft 465 kts 103°
2026-05-06 17:09 52.77554 2.66906 38968 ft 465 kts 104°
2026-05-06 17:10 52.76198 2.77330 38966 ft 465 kts 104°
2026-05-06 17:10 52.74836 2.87741 38964 ft 465 kts 104°
2026-05-06 17:11 52.73448 2.98162 38961 ft 465 kts 105°
2026-05-06 17:11 52.71697 3.08398 38959 ft 464 kts 108°
2026-05-06 17:12 52.69853 3.18575 38956 ft 464 kts 108°
2026-05-06 17:12 52.68009 3.28703 38953 ft 464 kts 109°
2026-05-06 17:13 52.66153 3.38856 38951 ft 464 kts 109°
2026-05-06 17:13 52.64290 3.48995 38949 ft 464 kts 109°
2026-05-06 17:14 52.62408 3.59177 38947 ft 464 kts 109°
2026-05-06 17:14 52.60527 3.69303 38946 ft 464 kts 109°
2026-05-06 17:15 52.58637 3.79430 38945 ft 464 kts 109°
2026-05-06 17:15 52.56733 3.89565 38944 ft 464 kts 109°
2026-05-06 17:16 52.54841 3.99588 38942 ft 464 kts 110°
2026-05-06 17:16 52.52925 4.09679 38941 ft 464 kts 110°
2026-05-06 17:17 52.51004 4.19747 38939 ft 464 kts 110°
2026-05-06 17:17 52.49072 4.29818 38934 ft 463 kts 109°
2026-05-06 17:18 52.47134 4.39882 38929 ft 463 kts 109°
2026-05-06 17:18 52.45200 4.49866 38925 ft 463 kts 110°
2026-05-06 17:19 52.43247 4.59892 38920 ft 464 kts 110°
2026-05-06 17:19 52.41284 4.69914 38915 ft 464 kts 110°
2026-05-06 17:19 52.40303 4.74901 38619 ft 467 kts 110°
2026-05-06 17:20 52.39298 4.79995 38044 ft 468 kts 110°
2026-05-06 17:20 52.38306 4.85009 37507 ft 468 kts 110°
2026-05-06 17:20 52.37308 4.90040 36971 ft 468 kts 110°
2026-05-06 17:20 52.36308 4.95070 36443 ft 467 kts 110°
2026-05-06 17:21 52.35307 5.00089 35900 ft 465 kts 110°
2026-05-06 17:21 52.34300 5.05115 35355 ft 465 kts 111°
2026-05-06 17:21 52.33178 5.10055 34847 ft 463 kts 114°
2026-05-06 17:21 52.31884 5.14834 34429 ft 458 kts 117°
2026-05-06 17:22 52.30544 5.19522 33999 ft 453 kts 117°
2026-05-06 17:22 52.29222 5.24118 33505 ft 449 kts 117°
2026-05-06 17:22 52.27900 5.28705 33016 ft 444 kts 117°
2026-05-06 17:22 52.26597 5.33216 32538 ft 440 kts 117°
2026-05-06 17:23 52.25302 5.37700 32041 ft 435 kts 117°
2026-05-06 17:23 52.24027 5.42108 31499 ft 431 kts 116°
2026-05-06 17:23 52.22749 5.46518 30959 ft 426 kts 116°
2026-05-06 17:23 52.21505 5.50804 30467 ft 421 kts 116°
2026-05-06 17:24 52.20247 5.55131 29945 ft 416 kts 116°
2026-05-06 17:24 52.19021 5.59339 29326 ft 414 kts 116°
2026-05-06 17:24 52.17801 5.63515 28745 ft 410 kts 116°
2026-05-06 17:24 52.16584 5.67677 28230 ft 404 kts 117°
2026-05-06 17:25 52.15385 5.71767 27792 ft 396 kts 117°
2026-05-06 17:25 52.14201 5.75805 27446 ft 390 kts 117°
2026-05-06 17:25 52.13157 5.79357 26628 ft 385 kts 117°
2026-05-06 17:25 52.12017 5.83235 26191 ft 377 kts 116°
2026-05-06 17:26 52.10891 5.87064 25793 ft 376 kts 116°
2026-05-06 17:26 52.09763 5.90898 25544 ft 375 kts 116°
2026-05-06 17:26 52.08644 5.94694 25276 ft 374 kts 116°
2026-05-06 17:26 52.07519 5.98502 24937 ft 372 kts 116°
2026-05-06 17:27 52.06409 6.02252 24551 ft 370 kts 116°
2026-05-06 17:27 52.05293 6.06016 24169 ft 367 kts 116°
2026-05-06 17:27 52.04201 6.09689 23679 ft 367 kts 116°
2026-05-06 17:27 52.03078 6.13460 22860 ft 375 kts 116°
2026-05-06 17:28 52.01942 6.17274 22178 ft 378 kts 116°
2026-05-06 17:28 52.00813 6.21052 21633 ft 375 kts 116°
2026-05-06 17:28 51.99666 6.24879 21099 ft 372 kts 116°
2026-05-06 17:28 51.98550 6.28598 20573 ft 370 kts 116°
2026-05-06 17:29 51.97429 6.32325 20047 ft 367 kts 116°
2026-05-06 17:29 51.96322 6.36004 19531 ft 365 kts 116°
2026-05-06 17:29 51.95215 6.39678 19019 ft 363 kts 116°
2026-05-06 17:29 51.94115 6.43321 18515 ft 361 kts 116°
2026-05-06 17:30 51.93014 6.46957 18019 ft 359 kts 116°
2026-05-06 17:30 51.91921 6.50561 17532 ft 357 kts 116°
2026-05-06 17:30 51.90829 6.54162 17051 ft 354 kts 116°
2026-05-06 17:30 51.89620 6.57564 16555 ft 351 kts 130°
2026-05-06 17:31 51.87704 6.59938 16037 ft 344 kts 158°
2026-05-06 17:31 51.85455 6.61088 15608 ft 339 kts 165°
2026-05-06 17:31 51.83189 6.62155 15138 ft 337 kts 164°
2026-05-06 17:31 51.80956 6.63253 14678 ft 335 kts 165°
2026-05-06 17:32 51.78702 6.64151 14225 ft 333 kts 169°
2026-05-06 17:32 51.76436 6.64748 13773 ft 330 kts 173°
2026-05-06 17:32 51.74162 6.65259 13312 ft 328 kts 174°
2026-05-06 17:32 51.71932 6.65752 12855 ft 326 kts 174°
2026-05-06 17:33 51.69668 6.66252 12375 ft 324 kts 174°
2026-05-06 17:33 51.67445 6.66746 11894 ft 322 kts 173°
2026-05-06 17:33 51.65218 6.67241 11419 ft 320 kts 173°
2026-05-06 17:33 51.63048 6.67724 11056 ft 315 kts 173°
2026-05-06 17:34 51.60884 6.68206 10732 ft 307 kts 173°
2026-05-06 17:34 51.58815 6.68666 10370 ft 303 kts 173°
2026-05-06 17:34 51.56721 6.69132 10022 ft 298 kts 173°
2026-05-06 17:34 51.54707 6.69555 9671 ft 291 kts 177°
2026-05-06 17:35 51.52747 6.69104 9076 ft 282 kts 207°
2026-05-06 17:35 51.51304 6.67181 8461 ft 272 kts 234°
2026-05-06 17:35 51.50178 6.64798 7837 ft 267 kts 234°
2026-05-06 17:36 51.47930 6.60257 7025 ft 255 kts 233°
2026-05-06 17:36 51.46823 6.58094 6694 ft 252 kts 232°
2026-05-06 17:36 51.45699 6.55924 6368 ft 252 kts 232°
2026-05-06 17:36 51.44580 6.53777 6047 ft 251 kts 232°
2026-05-06 17:37 51.43457 6.51640 5728 ft 250 kts 231°
2026-05-06 17:37 51.42343 6.49526 5413 ft 249 kts 232°
2026-05-06 17:37 51.41221 6.47393 5097 ft 248 kts 232°
2026-05-06 17:37 51.40126 6.45312 4788 ft 246 kts 232°
2026-05-06 17:38 51.39021 6.43200 4479 ft 245 kts 232°
2026-05-06 17:38 51.37809 6.41303 4147 ft 246 kts 211°
2026-05-06 17:38 51.36177 6.40553 3895 ft 252 kts 178°
2026-05-06 17:38 51.34467 6.41223 3920 ft 259 kts 153°
2026-05-06 17:39 51.32833 6.42470 3946 ft 261 kts 152°
2026-05-06 17:39 51.31189 6.43712 3970 ft 262 kts 153°
2026-05-06 17:39 51.29525 6.44939 3985 ft 262 kts 154°
2026-05-06 17:39 51.27856 6.46144 3985 ft 263 kts 154°
2026-05-06 17:40 51.26185 6.47334 3751 ft 260 kts 154°
2026-05-06 17:40 51.24542 6.48498 3429 ft 258 kts 154°
2026-05-06 17:40 51.22924 6.49648 3185 ft 250 kts 154°
2026-05-06 17:40 51.21390 6.50742 3149 ft 235 kts 154°
2026-05-06 17:41 51.19979 6.51863 3100 ft 219 kts 139°
2026-05-06 17:41 51.19135 6.53696 3041 ft 197 kts 102°
2026-05-06 17:41 51.19140 6.55686 3124 ft 168 kts 72°
2026-05-06 17:41 51.19571 6.57324 3001 ft 154 kts 57°
2026-05-06 17:42 51.20132 6.58723 2792 ft 148 kts 51°
2026-05-06 17:42 51.20737 6.60020 2586 ft 144 kts 49°
2026-05-06 17:42 51.21337 6.61266 2387 ft 140 kts 49°
2026-05-06 17:42 51.21941 6.62524 2213 ft 142 kts 49°
2026-05-06 17:43 51.22538 6.63763 2027 ft 142 kts 50°
2026-05-06 17:43 51.23127 6.65015 1833 ft 141 kts 50°
2026-05-06 17:43 51.23715 6.66268 1646 ft 140 kts 50°
2026-05-06 17:43 51.24302 6.67518 1448 ft 140 kts 50°
2026-05-06 17:44 51.24884 6.68736 1243 ft 138 kts 50°
2026-05-06 17:44 51.25458 6.69937 1046 ft 134 kts 50°
2026-05-06 17:44 51.26018 6.71116 859 ft 130 kts 50°
2026-05-06 17:44 51.26559 6.72249 684 ft 126 kts 50°
2026-05-06 17:45 51.27081 6.73348 521 ft 125 kts 51°
2026-05-06 17:45 51.27607 6.74453 361 ft 126 kts 51°
2026-05-06 17:45 51.28143 6.75581 199 ft 128 kts 51°
2026-05-06 17:45 51.28659 6.76638 154 ft 91 kts 51°
2026-05-06 17:46 51.28946 6.77257 154 ft 62 kts 52°
2026-05-06 17:46 51.29195 6.77776 154 ft 53 kts 53°
2026-05-06 17:46 51.29292 6.78095 154 ft 19 kts 100°
2026-05-06 17:46 51.29222 6.78213 154 ft 7 kts 173°
2026-05-06 17:47 51.29203 6.78213 153 ft 0 kts 183°
2026-05-06 17:47 51.29175 6.78200 153 ft 10 kts 209°
2026-05-06 17:47 51.29110 6.78077 154 ft 15 kts 233°
2026-05-06 17:48 51.29042 6.77936 154 ft 16 kts 232°
2026-05-06 17:48 51.28969 6.77782 154 ft 18 kts 234°
2026-05-06 17:48 51.28890 6.77615 154 ft 19 kts 233°
2026-05-06 17:48 51.28804 6.77435 154 ft 20 kts 231°
2026-05-06 17:49 51.28717 6.77255 154 ft 20 kts 233°
2026-05-06 17:49 51.28635 6.77080 154 ft 19 kts 233°
2026-05-06 17:49 51.28556 6.76916 154 ft 18 kts 232°
2026-05-06 17:49 51.28481 6.76760 154 ft 17 kts 232°
2026-05-06 17:50 51.28410 6.76609 154 ft 17 kts 234°
2026-05-06 17:50 51.28337 6.76457 154 ft 17 kts 233°
2026-05-06 17:50 51.28265 6.76304 154 ft 17 kts 232°
2026-05-06 17:50 51.28193 6.76154 154 ft 16 kts 233°
2026-05-06 17:51 51.28141 6.76046 154 ft 10 kts 226°
2026-05-06 17:51 51.28072 6.76046 154 ft 10 kts 171°
2026-05-06 17:51 51.27994 6.76048 154 ft 11 kts 180°
2026-05-06 17:51 51.27911 6.76048 154 ft 11 kts 181°
2026-05-06 17:52 51.27829 6.76045 154 ft 11 kts 182°
2026-05-06 17:52 51.27748 6.76042 154 ft 11 kts 181°
2026-05-06 17:52 51.27667 6.76040 154 ft 11 kts 181°
2026-05-06 17:52 51.27589 6.76068 154 ft 11 kts 154°
2026-05-06 17:53 51.27522 6.76138 154 ft 11 kts 124°
2026-05-06 17:53 51.27525 6.76257 154 ft 11 kts 70°
2026-05-06 17:53 51.27553 6.76364 154 ft 6 kts 63°
2026-05-06 17:53 51.27590 6.76391 154 ft 6 kts 347°
2026-05-06 17:54 51.27629 6.76372 154 ft 3 kts 339°
2026-05-06 17:54 51.27631 6.76370 154 ft 0 kts 340°